When you browse on this site, cookies collect data to enhance your experience and personalize the content and advertising you see.
Visit our Privacy Policy to learn more. By continuing to use the site, you agree to this use of cookies and data.

Stündliche Wetter Janiszewo

Heute, 15 August, Samstag

Zeit Temperatur Niederschläge Wind Luftdruck Luftfeuchtigkeit
00:00 +16°C° 0 mm 2 m/S 746 mmHg 80%
01:00 +16°C° 0 mm 2 m/S 746 mmHg 81%
02:00 +16°C° 0 mm 2 m/S 746 mmHg 81%
03:00 +15°C° 0 mm 2 m/S 746 mmHg 82%
04:00 +15°C° 0 mm 2 m/S 745 mmHg 83%
05:00 +17°C° 0 mm 2 m/S 746 mmHg 79%
06:00 +18°C° 0 mm 2 m/S 746 mmHg 76%
07:00 +20°C° 0 mm 2 m/S 746 mmHg 70%
08:00 +21°C° 0 mm 2 m/S 747 mmHg 64%
09:00 +24°C° 0 mm 3 m/S 747 mmHg 58%
10:00 +26°C° 0 mm 3 m/S 747 mmHg 52%
11:00 +26°C° 0 mm 2 m/S 747 mmHg 50%
12:00 +27°C° 0 mm 2 m/S 747 mmHg 47%
13:00 +27°C° 0 mm 1 m/S 747 mmHg 46%
14:00 +27°C° 0 mm 1 m/S 747 mmHg 46%
15:00 +27°C° 0 mm 1 m/S 746 mmHg 46%
16:00 +27°C° 0 mm 1 m/S 746 mmHg 47%
17:00 +25°C° 0 mm 1 m/S 746 mmHg 52%
18:00 +23°C° 0 mm 1 m/S 746 mmHg 56%
19:00 +22°C° 0 mm 1 m/S 746 mmHg 61%
20:00 +21°C° 0 mm 1 m/S 746 mmHg 63%
21:00 +20°C° 0 mm 1 m/S 747 mmHg 65%
22:00 +19°C° 0 mm 1 m/S 747 mmHg 67%
23:00 +19°C° 0 mm 1 m/S 747 mmHg 69%

Morgen, 16 August, Sonntag

Zeit Temperatur Niederschläge Wind Luftdruck Luftfeuchtigkeit
00:00 +18°C° 0 mm 1 m/S 747 mmHg 71%
01:00 +18°C° 0 mm 1 m/S 747 mmHg 72%
02:00 +16°C° 0 mm 1 m/S 747 mmHg 73%
03:00 +16°C° 0 mm 1 m/S 747 mmHg 74%
04:00 +16°C° 0 mm 1 m/S 747 mmHg 75%
05:00 +18°C° 0 mm 1 m/S 747 mmHg 71%
06:00 +20°C° 0 mm 1 m/S 747 mmHg 67%
07:00 +22°C° 0 mm 1 m/S 747 mmHg 62%
08:00 +23°C° 0 mm 1 m/S 747 mmHg 58%
09:00 +25°C° 0 mm 1 m/S 748 mmHg 53%
10:00 +27°C° 0 mm 1 m/S 748 mmHg 48%
11:00 +27°C° 0 mm 1 m/S 748 mmHg 46%
12:00 +28°C° 0 mm 1 m/S 747 mmHg 44%
13:00 +28°C° 0 mm 1 m/S 747 mmHg 42%
14:00 +28°C° 0 mm 1 m/S 747 mmHg 43%
15:00 +28°C° 0 mm 1 m/S 747 mmHg 43%
16:00 +28°C° 0 mm 1 m/S 746 mmHg 44%
17:00 +26°C° 0 mm 1 m/S 746 mmHg 51%
18:00 +24°C° 0 mm 1 m/S 746 mmHg 59%
19:00 +22°C° 0 mm 1 m/S 746 mmHg 66%
20:00 +21°C° 0 mm 1 m/S 746 mmHg 68%
21:00 +20°C° 0 mm 1 m/S 746 mmHg 69%
22:00 +20°C° 0 mm 1 m/S 746 mmHg 71%
23:00 +19°C° 0 mm 1 m/S 746 mmHg 72%

übermorgen, 17 August, Montag

Zeit Temperatur Niederschläge Wind Luftdruck Luftfeuchtigkeit
00:00 +19°C° 0 mm 1 m/S 746 mmHg 73%
01:00 +18°C° 0 mm 1 m/S 746 mmHg 74%
02:00 +18°C° 0 mm 1 m/S 746 mmHg 75%
03:00 +18°C° 0 mm 1 m/S 745 mmHg 77%
04:00 +16°C° 0 mm 1 m/S 745 mmHg 78%
05:00 +19°C° 0 mm 1 m/S 745 mmHg 74%
06:00 +19°C° 0 mm 2 m/S 745 mmHg 70%
07:00 +20°C° 0 mm 2 m/S 745 mmHg 66%
08:00 +23°C° 0 mm 2 m/S 745 mmHg 60%
09:00 +24°C° 0 mm 3 m/S 745 mmHg 54%
10:00 +26°C° 0 mm 3 m/S 745 mmHg 48%
11:00 +26°C° 0 mm 3 m/S 745 mmHg 47%
12:00 +27°C° 0 mm 3 m/S 744 mmHg 46%
13:00 +27°C° 0 mm 3 m/S 744 mmHg 45%
14:00 +26°C° 0 mm 3 m/S 744 mmHg 48%
15:00 +26°C° 0 mm 3 m/S 743 mmHg 50%
16:00 +26°C° 0 mm 3 m/S 743 mmHg 53%
17:00 +25°C° 0.1 mm 3 m/S 743 mmHg 56%
18:00 +22°C° 0.1 mm 3 m/S 742 mmHg 59%
19:00 +21°C° 0.1 mm 2 m/S 742 mmHg 62%
20:00 +20°C° 0.4 mm 2 m/S 742 mmHg 65%
21:00 +19°C° 0.4 mm 2 m/S 742 mmHg 69%
22:00 +19°C° 0.4 mm 2 m/S 742 mmHg 73%
23:00 +18°C° 0.1 mm 2 m/S 742 mmHg 74%

18 August, Dienstag

Zeit Temperatur Niederschläge Wind Luftdruck Luftfeuchtigkeit
00:00 +18°C° 0.1 mm 2 m/S 741 mmHg 75%
01:00 +17°C° 0.1 mm 2 m/S 741 mmHg 76%
02:00 +17°C° 0 mm 2 m/S 741 mmHg 78%
03:00 +16°C° 0 mm 2 m/S 741 mmHg 80%
04:00 +16°C° 0 mm 2 m/S 740 mmHg 82%
05:00 +17°C° 0 mm 2 m/S 740 mmHg 80%
06:00 +18°C° 0 mm 2 m/S 740 mmHg 78%
07:00 +20°C° 0 mm 2 m/S 740 mmHg 76%
08:00 +21°C° 0 mm 3 m/S 740 mmHg 71%
09:00 +24°C° 0 mm 3 m/S 740 mmHg 66%
10:00 +25°C° 0 mm 3 m/S 740 mmHg 61%
11:00 +26°C° 0 mm 3 m/S 740 mmHg 58%
12:00 +27°C° 0 mm 3 m/S 739 mmHg 56%
13:00 +28°C° 0 mm 2 m/S 739 mmHg 54%
14:00 +27°C° 0.1 mm 3 m/S 739 mmHg 56%
15:00 +27°C° 0.1 mm 3 m/S 738 mmHg 58%
16:00 +27°C° 0.1 mm 3 m/S 738 mmHg 60%
17:00 +25°C° 0.1 mm 2 m/S 738 mmHg 68%
18:00 +23°C° 0.1 mm 2 m/S 738 mmHg 76%
19:00 +21°C° 0.1 mm 2 m/S 738 mmHg 83%
20:00 +20°C° 0.1 mm 2 m/S 738 mmHg 86%
21:00 +19°C° 0.1 mm 2 m/S 738 mmHg 90%
22:00 +18°C° 0.1 mm 2 m/S 738 mmHg 93%
23:00 +19°C° 0 mm 1 m/S 738 mmHg 94%

19 August, Mittwoch

Zeit Temperatur Niederschläge Wind Luftdruck Luftfeuchtigkeit
00:00 +18°C° 0 mm 1 m/S 737 mmHg 94%
01:00 +18°C° 0 mm 1 m/S 737 mmHg 95%
02:00 +18°C° 0 mm 1 m/S 737 mmHg 95%
03:00 +16°C° 0 mm 1 m/S 737 mmHg 95%
04:00 +16°C° 0 mm 1 m/S 737 mmHg 96%
05:00 +18°C° 0 mm 1 m/S 737 mmHg 92%
06:00 +19°C° 0 mm 1 m/S 737 mmHg 87%
07:00 +20°C° 0 mm 1 m/S 737 mmHg 83%
08:00 +21°C° 0 mm 1 m/S 738 mmHg 77%
09:00 +22°C° 0 mm 1 m/S 738 mmHg 72%
10:00 +24°C° 0 mm 1 m/S 738 mmHg 66%
11:00 +24°C° 0 mm 2 m/S 738 mmHg 65%
12:00 +24°C° 0 mm 2 m/S 738 mmHg 64%
13:00 +25°C° 0 mm 2 m/S 738 mmHg 63%
14:00 +24°C° 0.1 mm 3 m/S 738 mmHg 67%
15:00 +22°C° 0.1 mm 3 m/S 738 mmHg 70%
16:00 +21°C° 0.1 mm 3 m/S 738 mmHg 74%
17:00 +20°C° 0.2 mm 3 m/S 738 mmHg 78%
18:00 +19°C° 0.2 mm 3 m/S 738 mmHg 82%
19:00 +18°C° 0.2 mm 3 m/S 738 mmHg 85%
20:00 +18°C° 0 mm 3 m/S 738 mmHg 86%
21:00 +18°C° 0 mm 3 m/S 738 mmHg 86%
22:00 +18°C° 0 mm 3 m/S 738 mmHg 87%
23:00 +17°C° 0 mm 3 m/S 738 mmHg 88%

20 August, Donnerstag

Zeit Temperatur Niederschläge Wind Luftdruck Luftfeuchtigkeit
00:00 +17°C° 0 mm 3 m/S 738 mmHg 89%
01:00 +17°C° 0 mm 2 m/S 738 mmHg 90%
02:00 +17°C° 0 mm 2 m/S 738 mmHg 91%
03:00 +17°C° 0 mm 2 m/S 738 mmHg 91%
04:00 +17°C° 0 mm 2 m/S 739 mmHg 92%
05:00 +17°C° 0 mm 3 m/S 739 mmHg 90%
06:00 +18°C° 0 mm 3 m/S 739 mmHg 89%
07:00 +19°C° 0 mm 3 m/S 739 mmHg 87%
08:00 +20°C° 0.1 mm 3 m/S 740 mmHg 80%
09:00 +21°C° 0.1 mm 4 m/S 740 mmHg 73%
10:00 +23°C° 0.1 mm 4 m/S 740 mmHg 66%
11:00 +23°C° 0.3 mm 4 m/S 741 mmHg 65%
12:00 +25°C° 0.3 mm 4 m/S 741 mmHg 64%
13:00 +25°C° 0.3 mm 5 m/S 741 mmHg 63%
14:00 +25°C° 0.1 mm 4 m/S 741 mmHg 61%
15:00 +25°C° 0.1 mm 4 m/S 741 mmHg 60%
16:00 +25°C° 0.1 mm 4 m/S 741 mmHg 59%
17:00 +24°C° 0 mm 3 m/S 741 mmHg 66%
18:00 +21°C° 0 mm 2 m/S 742 mmHg 73%
19:00 +20°C° 0 mm 1 m/S 742 mmHg 80%
20:00 +20°C° 0 mm 1 m/S 742 mmHg 82%
21:00 +19°C° 0 mm 1 m/S 742 mmHg 84%
22:00 +18°C° 0 mm 1 m/S 743 mmHg 86%
23:00 +18°C° 0 mm 1 m/S 743 mmHg 86%
Mehr zeigen